Airfield :
LOGIN :

Register | Disclaimer

   EN    FR    IT 

 










Legend :    VFR   Marginal VFR   IFR   Intensive IFR   Very Intensive IFR
Visi :
Ceiling :
>= 8 km
>= 3000ft
5 to 8 km
1000 to 3000 ft
1500m to 5 km
500 to 1000 ft
800 to 1500m
200 to 500 ft
< 800m
< 200 ft
Symbols :   Thunderstorms  Fog  Heavy snow  Heavy precipitations  Wind > 20 kt
SIGMETs :     Misc.  Thunderstorms  Icing  Turbulence  Mountain Waves  Volcanic Ashes







- Airport Elevation : 156 ft
- IATA code : OMO


LQMO - Mostar

CURRENT METAR :
  • 251200Z 15013KT 9999 FEW045 BKN055 19/08 Q1017

EXPIRED METARs :
  • 251130Z 16014KT 9999 SCT048 BKN062 19/07 Q1018
  • 251100Z 16014KT 9999 SCT046 BKN063 19/08 Q1018
  • 251030Z 18008KT 150V230 9999 SCT045 BKN060 18/08 Q1018
  • 251000Z 18010KT 9999 FEW045 BKN050 18/07 Q1018
  • 250930Z 18010KT 9999 FEW045 BKN050 18/07 Q1018

TAF TAF LQMO
Valid from the 25 at 12:00 until the 26 at 12:00 UTC


251100Z 2512/2612 14005KT 9999 SCT040 BKN050 TX20/2514Z TN08/2604Z
TEMPO 2512/2516 22015KT
PROB40
TEMPO 2512/2516 RA
TEMPO 2610/2612 22015KT
No reported NOTAMs for that airfield.



MET'MAP, your aeronautical weather chart ! - Copyright ORBIFLY December 2007 - Disclaimer

ORBIFLY MET'MAP TEAM :

Programming & Development : Alexandra Zaïnal
Concept & Development : Baudouin d'Aumeries
Co-Development & Prog : Marc-Olivier Méhu
Technical & hardware support : Manuel Goepfert

Contact : metmap@orbifly.com




SOURCES & CREDITS :

   NOAA